Regional Weather Roundup
Issued by NWS

Home | Current Version | Previous Version | Graphics & Text | Print | Product List | Glossary On
Versions: 1 2 3 4 5 6 7 8 9 10 11 12 13 14 15 16 17 18 19 20 21 22 23 24 25 26 27 28 29 30 31 32 33 34 35 36 37 38 39 40 41 42 43 44 45 46 47 48 49 50
000
ASUS45 KPSR 291910
RWRAZ

ARIZONA REGIONAL HOURLY WEATHER ROUNDUP
NATIONAL WEATHER SERVICE PHOENIX AZ
1200 PM MST FRI AUG 29 2014

NOTE: FAIR INDICATES FEW OR NO CLOUDS BELOW 12,000 FEET WITH NO
SIGNIFICANT WEATHER AND/OR OBSTRUCTIONS TO VISIBILITY.

AZZ001>003-036-292000-
NORTHWEST ARIZONA

CITY           SKY/WX    TMP DP  RH WIND       PRES   REMARKS
BULLHEAD CITY  SUNNY    100  36  10 SW5       29.82F
KINGMAN        SUNNY     95  34  11 VRB6      30.02F
$$

AZZ004>008-015-016-018-292000-
NORTH CENTRAL ARIZONA

CITY           SKY/WX    TMP DP  RH WIND       PRES   REMARKS
GRAND CANYON   SUNNY     79  32  18 E7        30.26F
WILLIAMS       SUNNY     75  37  25 NE3       30.33F
PRESCOTT       SUNNY     82  38  20 CALM      30.15F
FLAGSTAFF      SUNNY     75  35  23 NE6       30.29F
PAYSON         SUNNY     84  36  17 N9        30.15F
PAGE           SUNNY     87  42  20 E6        30.09F
$$

AZZ009>014-017-292000-
NORTHEAST ARIZONA

CITY           SKY/WX    TMP DP  RH WIND       PRES   REMARKS
WINSLOW        SUNNY     83  43  24 CALM      30.16F
SAINT JOHNS    SUNNY     80  40  23 MISG      30.19F
WINDOW ROCK    SUNNY     80  34  19 N8        30.24
SHOW LOW       SUNNY     73  36  25 NE10      30.25F
$$

AZZ023-292000-
GREATER PHOENIX AREA

CITY           SKY/WX    TMP DP  RH WIND       PRES   REMARKS
PHOENIX        SUNNY    102  40  12 S3        29.81F
BUCKEYE          N/A     99  50  19 SE8       29.82F
GLENDALE       SUNNY    100  46  16 VRB6      29.83F
LUKE AFB       NOT AVBL
DEER VALLEY    SUNNY    100  40  12 SW3       29.83F
SCOTTSDALE     SUNNY    100  45  15 CALM      29.85F
MESA-GATEWAY   SUNNY     99  43  14 CALM      29.86F
CHANDLER       SUNNY     99  45  15 VRB6      29.83F
$$

AZZ027-028-292000-
SOUTHWEST MARICOPA COUNTY AND PINAL COUNTY

CITY           SKY/WX    TMP DP  RH WIND       PRES   REMARKS
CASA GRANDE    SUNNY    100  48  17 SE5       29.85F
GILA BEND      CLEAR    104  41  11 W3        29.82F
$$

AZZ503-504-507>509-292000-
SOUTHEAST ARIZONA

CITY           SKY/WX    TMP DP  RH WIND       PRES   REMARKS
TUCSON         SUNNY     98  39  13 VRB5      29.94F
DAVIS-MONTHAN    N/A    N/A N/A N/A MISG        N/A
RYAN FIELD       N/A     97  46  17 NW9       29.93F
NOGALES        SUNNY     89  47  23 VRB5      30.03F
SIERRA VISTA   MOSUNNY   88  43  20 SE6       30.11F
DOUGLAS        SUNNY     88  50  27 S8        30.06F
SAFFORD        SUNNY     93  44  18 S8        29.97F
$$

AZZ020-021-025-026-031-292000-
SOUTHWEST ARIZONA

CITY           SKY/WX    TMP DP  RH WIND       PRES   REMARKS
YUMA           SUNNY    109  37   8 N6        29.75F HX 102
$$

CAZ031-033-041-043-047-048-061-292000-
SOUTHERN CALIFORNIA

CITY           SKY/WX    TMP DP  RH WIND       PRES   REMARKS
DOWNTOWN L.A.  SUNNY     89  58  34 VRB3      29.85F
L.A. AIRPORT   MOSUNNY   77  63  61 W8        29.88F
SAN DIEGO      MOSUNNY   78  65  63 NW9       29.89F
BURBANK        SUNNY     88  49  25 SE12      29.87F
ONTARIO        MOSUNNY   92  48  22 S5        29.88F
RIVERSIDE      SUNNY     92  49  22 VRB6      29.87F
PALM SPRINGS   SUNNY    108  36   8 CALM      29.78F HX 101
EL CENTRO NAS  SUNNY    106  48  14 SE6       29.73F HX 102
IMPERIAL       SUNNY    106  48  14 VRB3      29.73F HX 102
BLYTHE         SUNNY    105  41  11 N6        29.77F HX 100
NEEDLES        SUNNY    103  36  10 VRB3      29.82F
$$

NVZ020-UTZ003-292000-
SOUTHERN NEVADA-UTAH

CITY           SKY/WX    TMP DP  RH WIND       PRES   REMARKS
LAS VEGAS      MOSUNNY   98  32  10 CALM      29.88F
SALT LAKE CITY MOSUNNY   84  43  23 S13       30.06F
$$

NMZ009-TXZ055-292000-
NEW MEXICO-WEST TEXAS

CITY           SKY/WX    TMP DP  RH WIND       PRES   REMARKS
ALBUQUERQUE    MOSUNNY   79  43  27 S6        30.16F
EL PASO        MOSUNNY   88  47  24 W3        30.03F
$$


........................KEY........................
SKY/WX - SKY CONDITION/WEATHER
TMP    - TEMPERATURE IN FAHRENHEIT
DP     - DEW POINT IN FAHRENHEIT
RH     - RELATIVE HUMIDITY IN PERCENT
WIND   - DIRECTION AND SPEED IN MILES PER HOUR (MPH)
VRB    - VARIABLE WIND DIRECTION
PRES   - MEAN SEA LEVEL PRESSURE IN INCHES OF MERCURY
         F - FALLING PRESSURE   R - RISING PRESSURE
         S - STEADY PRESSURE
VSB    - VISIBILITY IN MILES
HX     - HEAT INDEX IN FAHRENHEIT
WCI    - WIND CHILL INDEX IN FAHRENHEIT
TC     - TEMPERATURE IN CELSIUS WHICH IS ALSO KNOWN AS
         TEMPERATURE IN CENTIGRADE
AFB    - AIR FORCE BASE
         LUKE AFB IS LUKE AIR FORCE BASE
         DAVIS-MONTHAN IS DAVIS-MONTHAN AIR FORCE BASE
NAS    - NAVAL AIR STATION
         EL CENTRO NAS IS EL CENTRO NAVAL AIR STATION
N/A    - NOT AVAILABLE



USA.gov is the U.S. government's official web portal to all federal, state and local government web resources and services.